VLG56J LPPR-LPFR

Flight info

Callsign VLG56J
Flight time 0h 50m
Altitude 35000
Route MANIK DCT INBOM DCT ALAGU
Aircraft A320/M-SDE3FGHIRWY/LB1

Departure

Time 2026-05-04 14:47
Airport Francisco de Sá Carneiro Airport (LPPR)

Arrival

Time 2026-05-04 15:37
Airport Faro - Gago Coutinho International Airport (LPFR)
Time Latitude Longitude Altitude Speed Heading
2026-05-04 14:18 41.23732 -8.67260 237 ft 0 kts 73°
2026-05-04 14:39 41.23730 -8.67269 240 ft 3 kts 73°
2026-05-04 14:39 41.23724 -8.67293 236 ft 3 kts 88°
2026-05-04 14:40 41.23723 -8.67342 233 ft 3 kts 97°
2026-05-04 14:40 41.23724 -8.67351 233 ft 2 kts 103°
2026-05-04 14:40 41.23728 -8.67374 232 ft 2 kts 116°
2026-05-04 14:40 41.23729 -8.67376 232 ft 0 kts 116°
2026-05-04 14:42 41.23727 -8.67374 232 ft 3 kts 130°
2026-05-04 14:42 41.23663 -8.67416 231 ft 14 kts 230°
2026-05-04 14:42 41.23626 -8.67532 230 ft 13 kts 259°
2026-05-04 14:43 41.23608 -8.67647 229 ft 9 kts 257°
2026-05-04 14:43 41.23602 -8.67685 229 ft 0 kts 258°
2026-05-04 14:44 41.23600 -8.67699 230 ft 7 kts 258°
2026-05-04 14:44 41.23610 -8.67803 230 ft 11 kts 314°
2026-05-04 14:44 41.23648 -8.67821 227 ft 0 kts 353°
2026-05-04 14:46 41.23754 -8.67854 221 ft 52 kts 346°
2026-05-04 14:46 41.24367 -8.68022 210 ft 120 kts 348°
2026-05-04 14:46 41.25353 -8.68267 235 ft 161 kts 347°
2026-05-04 14:47 41.26448 -8.68568 915 ft 160 kts 346°
2026-05-04 14:47 41.27541 -8.68840 1634 ft 165 kts 345°
2026-05-04 14:47 41.28738 -8.69156 2057 ft 186 kts 346°
2026-05-04 14:47 41.30091 -8.69516 2450 ft 211 kts 346°
2026-05-04 14:48 41.31612 -8.69921 2896 ft 235 kts 346°
2026-05-04 14:48 41.33283 -8.70363 3535 ft 250 kts 346°
2026-05-04 14:48 41.35012 -8.70815 4457 ft 254 kts 346°
2026-05-04 14:48 41.36764 -8.71276 5408 ft 258 kts 346°
2026-05-04 14:49 41.38541 -8.71745 6343 ft 261 kts 345°
2026-05-04 14:49 41.40195 -8.72671 7168 ft 262 kts 321°
2026-05-04 14:49 41.41368 -8.74535 8004 ft 264 kts 294°
2026-05-04 14:49 41.41759 -8.76924 8876 ft 268 kts 268°
2026-05-04 14:50 41.41463 -8.79407 9749 ft 272 kts 259°
2026-05-04 14:50 41.40860 -8.81824 10521 ft 278 kts 240°
2026-05-04 14:50 41.39522 -8.83781 10839 ft 305 kts 215°
2026-05-04 14:50 41.37436 -8.84747 11116 ft 332 kts 186°
2026-05-04 14:51 41.35079 -8.84470 11723 ft 345 kts 168°
2026-05-04 14:51 41.32758 -8.83623 12435 ft 350 kts 167°
2026-05-04 14:51 41.30397 -8.82725 13139 ft 355 kts 167°
2026-05-04 14:51 41.28002 -8.81792 13837 ft 359 kts 167°
2026-05-04 14:52 41.25574 -8.80830 14448 ft 364 kts 167°
2026-05-04 14:52 41.23133 -8.79839 15084 ft 368 kts 165°
2026-05-04 14:52 41.20737 -8.78689 15718 ft 372 kts 163°
2026-05-04 14:52 41.18289 -8.77450 16355 ft 375 kts 163°
2026-05-04 14:53 41.15848 -8.76270 16967 ft 378 kts 165°
2026-05-04 14:53 41.13335 -8.75149 17581 ft 381 kts 167°
2026-05-04 14:53 41.10795 -8.74102 18198 ft 383 kts 168°
2026-05-04 14:53 41.08226 -8.73102 18735 ft 386 kts 169°
2026-05-04 14:54 41.05608 -8.72112 19281 ft 389 kts 169°
2026-05-04 14:54 41.03012 -8.71134 19807 ft 392 kts 169°
2026-05-04 14:54 41.00359 -8.70126 20332 ft 395 kts 169°
2026-05-04 14:54 40.97697 -8.69105 20844 ft 398 kts 169°
2026-05-04 14:55 40.95045 -8.68078 21339 ft 401 kts 169°
2026-05-04 14:55 40.92343 -8.67026 21833 ft 404 kts 169°
2026-05-04 14:55 40.89646 -8.65972 22321 ft 407 kts 169°
2026-05-04 14:55 40.86911 -8.64903 22807 ft 410 kts 169°
2026-05-04 14:56 40.84167 -8.63831 23272 ft 413 kts 169°
2026-05-04 14:56 40.81394 -8.62751 23728 ft 416 kts 169°
2026-05-04 14:56 40.78603 -8.61673 24115 ft 419 kts 170°
2026-05-04 14:56 40.75773 -8.60584 24502 ft 421 kts 170°
2026-05-04 14:57 40.72936 -8.59492 24879 ft 424 kts 170°
2026-05-04 14:57 40.70118 -8.58408 25246 ft 426 kts 170°
2026-05-04 14:57 40.67262 -8.57307 25608 ft 428 kts 170°
2026-05-04 14:57 40.64383 -8.56196 25971 ft 431 kts 170°
2026-05-04 14:58 40.61528 -8.55095 26330 ft 433 kts 170°
2026-05-04 14:58 40.58608 -8.53971 26675 ft 436 kts 170°
2026-05-04 14:58 40.55677 -8.52842 27036 ft 438 kts 170°
2026-05-04 14:58 40.53720 -8.52086 27259 ft 440 kts 170°
2026-05-04 14:59 40.49795 -8.50578 27716 ft 443 kts 170°
2026-05-04 14:59 40.46849 -8.49452 28061 ft 445 kts 171°
2026-05-04 14:59 40.40842 -8.47160 28728 ft 450 kts 171°
2026-05-04 15:00 40.37810 -8.46003 29041 ft 453 kts 171°
2026-05-04 15:00 40.34769 -8.44843 29359 ft 455 kts 171°
2026-05-04 15:00 40.31748 -8.43688 29663 ft 458 kts 171°
2026-05-04 15:01 40.25583 -8.41328 30212 ft 463 kts 171°
2026-05-04 15:01 40.23530 -8.40547 30375 ft 464 kts 171°
2026-05-04 15:01 40.19377 -8.38968 30701 ft 467 kts 171°
2026-05-04 15:01 40.17295 -8.38176 30857 ft 468 kts 171°
2026-05-04 15:02 40.14139 -8.36976 31107 ft 470 kts 171°
2026-05-04 15:02 40.11021 -8.35792 31384 ft 471 kts 171°
2026-05-04 15:02 40.07851 -8.34592 31699 ft 470 kts 171°
2026-05-04 15:02 40.04709 -8.33407 32024 ft 470 kts 171°
2026-05-04 15:03 40.01595 -8.32231 32379 ft 469 kts 171°
2026-05-04 15:03 39.98453 -8.31046 32752 ft 468 kts 171°
2026-05-04 15:03 39.95317 -8.29864 33068 ft 467 kts 171°
2026-05-04 15:03 39.92179 -8.28681 33391 ft 467 kts 171°
2026-05-04 15:04 39.89088 -8.27515 33718 ft 466 kts 171°
2026-05-04 15:04 39.85968 -8.26339 34029 ft 466 kts 172°
2026-05-04 15:04 39.82862 -8.25171 34285 ft 466 kts 171°
2026-05-04 15:04 39.79738 -8.23997 34585 ft 465 kts 171°
2026-05-04 15:05 39.76626 -8.22827 34863 ft 464 kts 171°
2026-05-04 15:05 39.73508 -8.21659 35019 ft 464 kts 171°
2026-05-04 15:05 39.67365 -8.19358 35047 ft 458 kts 171°
2026-05-04 15:06 39.61220 -8.17054 35044 ft 457 kts 171°
2026-05-04 15:07 39.52015 -8.13627 35041 ft 457 kts 171°
2026-05-04 15:07 39.45925 -8.11362 35038 ft 457 kts 171°
2026-05-04 15:08 39.39804 -8.09085 35025 ft 457 kts 171°
2026-05-04 15:08 39.33701 -8.06828 35022 ft 456 kts 171°
2026-05-04 15:09 39.27603 -8.04583 35018 ft 456 kts 171°
2026-05-04 15:09 39.21450 -8.02311 35016 ft 456 kts 171°
2026-05-04 15:10 39.12325 -7.98943 35012 ft 456 kts 171°
2026-05-04 15:11 39.03144 -7.95565 35006 ft 455 kts 171°
2026-05-04 15:11 38.97060 -7.93335 35008 ft 455 kts 171°
2026-05-04 15:12 38.90948 -7.91105 35005 ft 455 kts 171°
2026-05-04 15:12 38.84859 -7.88882 35008 ft 455 kts 171°
2026-05-04 15:13 38.78740 -7.86648 34999 ft 455 kts 171°
2026-05-04 15:13 38.72665 -7.84432 35004 ft 455 kts 171°
2026-05-04 15:14 38.66576 -7.82219 35016 ft 455 kts 171°
2026-05-04 15:14 38.60467 -7.80004 34994 ft 457 kts 171°
2026-05-04 15:15 38.54343 -7.77784 34667 ft 452 kts 171°
2026-05-04 15:15 38.51342 -7.76697 33562 ft 452 kts 171°
2026-05-04 15:15 38.48330 -7.75608 32645 ft 445 kts 171°
2026-05-04 15:16 38.42432 -7.73476 30933 ft 433 kts 171°
2026-05-04 15:16 38.39539 -7.72434 30117 ft 427 kts 171°
2026-05-04 15:16 38.33913 -7.70406 28315 ft 416 kts 171°
2026-05-04 15:17 38.31138 -7.69409 27442 ft 410 kts 171°
2026-05-04 15:17 38.25734 -7.67473 25792 ft 399 kts 171°
2026-05-04 15:17 38.23055 -7.66510 25248 ft 395 kts 171°
2026-05-04 15:18 38.20431 -7.65572 25054 ft 396 kts 171°
2026-05-04 15:18 38.17753 -7.64619 24721 ft 394 kts 171°
2026-05-04 15:18 38.15133 -7.63684 24275 ft 391 kts 171°
2026-05-04 15:19 38.09925 -7.61859 23345 ft 383 kts 175°
2026-05-04 15:19 38.07304 -7.61435 22849 ft 373 kts 185°
2026-05-04 15:19 38.02153 -7.61431 21876 ft 366 kts 187°
2026-05-04 15:20 37.99641 -7.61438 21419 ft 364 kts 186°
2026-05-04 15:20 37.97109 -7.61444 20984 ft 361 kts 186°
2026-05-04 15:20 37.94584 -7.61446 20545 ft 359 kts 186°
2026-05-04 15:20 37.92108 -7.61446 20117 ft 357 kts 186°
2026-05-04 15:21 37.89616 -7.61447 19706 ft 355 kts 186°
2026-05-04 15:21 37.87146 -7.61449 19296 ft 353 kts 186°
2026-05-04 15:21 37.82284 -7.61450 18510 ft 349 kts 186°
2026-05-04 15:22 37.79848 -7.61447 18079 ft 348 kts 186°
2026-05-04 15:22 37.77423 -7.61445 17657 ft 345 kts 186°
2026-05-04 15:22 37.72637 -7.61449 16828 ft 341 kts 186°
2026-05-04 15:23 37.70285 -7.61452 16429 ft 339 kts 185°
2026-05-04 15:23 37.67913 -7.61453 16040 ft 338 kts 185°
2026-05-04 15:23 37.65588 -7.61453 15662 ft 336 kts 185°
2026-05-04 15:23 37.63249 -7.61452 15298 ft 334 kts 185°
2026-05-04 15:24 37.58614 -7.61452 14560 ft 330 kts 185°
2026-05-04 15:24 37.54045 -7.61456 13861 ft 327 kts 185°
2026-05-04 15:25 37.51771 -7.61456 13464 ft 326 kts 185°
2026-05-04 15:25 37.49503 -7.61456 13074 ft 324 kts 185°
2026-05-04 15:25 37.47246 -7.61457 12701 ft 322 kts 184°
2026-05-04 15:26 37.42811 -7.61461 11961 ft 318 kts 184°
2026-05-04 15:26 37.40594 -7.61465 11588 ft 316 kts 184°
2026-05-04 15:26 37.36200 -7.61465 10858 ft 312 kts 184°
2026-05-04 15:27 37.34044 -7.61613 10491 ft 307 kts 193°
2026-05-04 15:27 37.29860 -7.62432 9902 ft 300 kts 193°
2026-05-04 15:28 37.25909 -7.63200 8981 ft 283 kts 192°
2026-05-04 15:28 37.23971 -7.63581 8375 ft 280 kts 192°
2026-05-04 15:28 37.20117 -7.64346 7118 ft 278 kts 191°
2026-05-04 15:29 37.18203 -7.64726 6488 ft 278 kts 191°
2026-05-04 15:30 37.11226 -7.66096 4575 ft 275 kts 191°
2026-05-04 15:30 37.05581 -7.67195 4021 ft 273 kts 191°
2026-05-04 15:31 37.01926 -7.68334 4023 ft 264 kts 211°
2026-05-04 15:31 37.00478 -7.69617 3946 ft 247 kts 227°
2026-05-04 15:32 36.98499 -7.74937 3343 ft 218 kts 271°
2026-05-04 15:32 36.98831 -7.78349 2821 ft 179 kts 282°
2026-05-04 15:33 36.99242 -7.81204 2377 ft 155 kts 282°
2026-05-04 15:34 36.99773 -7.84896 1811 ft 134 kts 281°
2026-05-04 15:34 36.99936 -7.86035 1632 ft 131 kts 280°
2026-05-04 15:34 37.00255 -7.88263 1278 ft 130 kts 281°
2026-05-04 15:35 37.00573 -7.90495 927 ft 130 kts 279°
2026-05-04 15:35 37.00728 -7.91589 723 ft 127 kts 281°
2026-05-04 15:35 37.00887 -7.92683 563 ft 128 kts 279°
2026-05-04 15:36 37.01205 -7.94862 221 ft 126 kts 278°
2026-05-04 15:36 37.01355 -7.95945 55 ft 126 kts 277°
2026-05-04 15:36 37.01486 -7.96914 30 ft 88 kts 279°
2026-05-04 15:37 37.01544 -7.97333 29 ft 27 kts 278°
2026-05-04 15:37 37.01572 -7.97539 29 ft 21 kts 281°
2026-05-04 15:37 37.01594 -7.97699 29 ft 17 kts 279°
2026-05-04 15:37 37.01625 -7.97823 30 ft 13 kts 297°
2026-05-04 15:38 37.01689 -7.97842 31 ft 9 kts 12°
2026-05-04 15:38 37.01729 -7.97799 31 ft 7 kts 56°
2026-05-04 15:38 37.01744 -7.97759 31 ft 0 kts 64°
2026-05-04 15:39 37.01758 -7.97721 31 ft 19 kts 68°
2026-05-04 15:40 37.01765 -7.97588 31 ft 10 kts 96°
2026-05-04 15:40 37.01756 -7.97503 30 ft 9 kts 104°
2026-05-04 15:40 37.01743 -7.97427 30 ft 10 kts 101°
2026-05-04 15:40 37.01725 -7.97284 30 ft 23 kts 99°
2026-05-04 15:41 37.01698 -7.97085 30 ft 22 kts 99°
2026-05-04 15:41 37.01685 -7.96927 29 ft 10 kts 62°
2026-05-04 15:41 37.01745 -7.96898 29 ft 9 kts 13°
2026-05-04 15:41 37.01801 -7.96887 29 ft 8 kts 13°
2026-05-04 15:42 37.01843 -7.96863 29 ft 6 kts 13°
2026-05-04 15:42 37.01882 -7.96855 29 ft 5 kts
2026-05-04 15:42 37.01910 -7.96848 29 ft 3 kts 10°
2026-05-04 15:42 37.01915 -7.96847 29 ft 0 kts 10°